DateTime,F1_A11,F1_S11,BsB_S11,BsG_S11,BsR_S11,BbsB_S11,BbsG_S11,BbsR_S11,BaB_A11,BaG_A11,BaR_A11,T_S11,U_S11,P_S11,T1_A11
2016-01-04T00:00:00Z,0000380,21000600,,,,,,,,,,25.6,00.0,0649.1,34.2
2016-01-04T00:01:00Z,0000380,21000600,,,,,,,,,,25.5,00.0,0649.1,34.2
2016-01-04T00:02:00Z,0000380,21000600,,,,,,,,,,25.5,00.0,0649.1,34.2
2016-01-04T00:03:00Z,0000380,61000600,,,,,,,,,,25.6,00.0,0649.1,34.2
2016-01-04T00:04:00Z,0000380,41000600,0001.08,-000.57,-000.45,-000.67,-000.03,-000.21,0000.13,0000.16,-000.24,25.6,00.0,0649.7,34.2
2016-01-04T00:05:00Z,0000380,01000600,-000.49,-000.15,0000.11,0000.21,0000.16,-000.03,-000.02,-000.10,0000.11,25.6,00.0,0649.8,34.2
2016-01-04T00:06:00Z,0000380,01000600,-000.22,-000.24,0000.21,-000.24,-000.03,0000.36,-000.28,0000.09,-000.05,25.5,00.0,0649.8,34.2
2016-01-04T00:07:00Z,0000380,01000600,-000.76,0000.18,-000.14,-001.12,-000.15,-000.28,0000.28,0000.12,0000.33,25.5,00.0,0649.8,34.2
2016-01-04T00:08:00Z,0000380,01000600,-000.30,-000.31,-000.05,-000.05,0000.24,0000.10,0000.08,0000.07,0000.05,25.5,00.0,0649.8,34.2
2016-01-04T00:09:00Z,0000380,01000600,-000.41,-000.09,-000.11,-000.75,0000.37,0000.05,0000.06,-000.08,-000.36,25.5,00.0,0649.8,34.2
2016-01-04T00:10:00Z,0000380,01000600,0000.21,-000.13,-000.30,0000.66,0000.23,-000.03,-000.09,-000.09,0000.07,25.5,00.0,0649.8,34.2
2016-01-04T00:11:00Z,0000380,01000600,-000.34,-000.15,-000.04,-000.49,0000.47,0000.02,-000.08,-000.00,-000.13,25.5,00.0,0649.8,34.2
2016-01-04T00:12:00Z,0000380,01000600,-000.28,0000.09,-000.41,-000.21,-000.16,0000.03,-000.02,-000.10,0000.02,25.5,00.0,0649.8,34.2
2016-01-04T00:13:00Z,0000380,01000600,0000.06,0000.40,-000.45,-000.06,-000.27,-000.31,0000.06,0000.13,-000.10,25.5,00.0,0649.7,34.2
2016-01-04T00:14:00Z,0000380,01000600,0001.36,-000.31,0000.23,0000.28,-000.36,-000.18,0000.07,-000.01,0000.06,25.5,00.0,0649.8,34.2
2016-01-04T00:15:00Z,0000380,01000600,-000.32,0000.15,-000.13,-000.42,0000.45,-000.24,-000.01,0000.09,0000.20,25.4,00.0,0649.7,34.2
2016-01-04T00:16:00Z,0000380,01000600,0000.09,0000.12,-000.09,0000.15,0000.00,-000.02,-000.11,-000.10,-000.22,25.4,00.0,0649.8,34.2
2016-01-04T00:17:00Z,0000380,01000600,0000.12,0000.07,-000.10,-000.34,0000.23,-000.16,-000.05,-000.14,0000.36,25.3,00.0,0649.8,34.2
2016-01-04T00:18:00Z,0000380,01000600,-000.41,-000.07,0000.07,-000.47,0000.29,0000.18,0000.12,0000.07,-000.38,25.3,00.0,0649.8,34.2
2016-01-04T00:19:00Z,0000380,01000600,-000.56,-000.09,0000.02,-000.28,-000.06,-000.18,0000.01,0000.04,0000.26,25.3,00.0,0649.8,34.2
2016-01-04T00:20:00Z,0000380,01000600,0000.15,0000.13,-000.11,-000.41,0000.19,0000.05,-000.14,-000.04,-000.08,25.3,00.0,0649.7,34.2
2016-01-04T00:21:00Z,0000380,01000600,-000.30,-000.31,0000.13,-000.06,0000.34,0000.02,-000.14,0000.06,-000.06,25.3,00.0,0649.7,34.2
2016-01-04T00:22:00Z,0000380,01000600,0000.17,0000.15,-000.04,-000.21,0000.00,0000.23,0000.24,-000.04,0000.12,25.3,00.0,0649.7,34.2
2016-01-04T00:23:00Z,0000380,01000600,0000.11,-000.29,-000.09,0000.29,0000.31,0000.08,-000.23,0000.04,-000.11,25.3,00.0,0649.7,34.2
2016-01-04T00:24:00Z,0000380,01000600,0000.04,-000.18,-000.21,-000.02,0000.45,-000.31,0000.35,-000.07,0000.26,25.3,00.0,0649.7,34.2
2016-01-04T00:25:00Z,0000380,01000600,-000.41,-000.20,-000.16,0000.03,0000.27,0000.06,-000.23,-000.11,-000.44,25.3,00.0,0649.7,34.2
2016-01-04T00:26:00Z,0000380,01000600,0000.56,-000.11,-000.41,0000.13,0000.23,-000.06,0000.04,0000.09,-000.01,25.3,00.0,0649.7,34.2
2016-01-04T00:27:00Z,0000380,01000600,0000.69,-000.02,-000.46,-000.60,-000.10,-000.24,-000.07,-000.07,0000.31,25.2,00.0,0649.6,34.2
2016-01-04T00:28:00Z,0000380,01000600,0000.28,-000.07,0000.09,-000.45,0000.13,-000.11,0000.12,0000.28,-000.17,25.2,00.0,0649.6,34.2
2016-01-04T00:29:00Z,0000380,01000600,-000.71,0000.55,0000.20,-000.31,0000.31,-000.03,0000.02,-000.02,0000.11,25.2,00.0,0649.6,34.2
2016-01-04T00:30:00Z,0000380,01000600,0000.18,-000.14,-000.47,-000.11,0000.11,-000.11,-000.06,-000.07,0000.02,25.2,00.0,0649.6,34.2
2016-01-04T00:31:00Z,0000380,01000600,-001.47,0000.35,0000.07,-000.11,0000.13,0000.24,0000.05,0000.14,0000.09,25.2,00.0,0649.6,34.2
2016-01-04T00:32:00Z,0000380,01000600,0000.60,0000.27,-000.14,0000.02,-000.15,-000.13,-000.10,-000.22,-000.04,25.2,00.0,0649.6,34.2
2016-01-04T00:33:00Z,0000380,01000600,0000.21,-000.79,0000.13,-000.03,0000.11,0000.10,0000.12,0000.16,-000.05,25.2,00.0,0649.6,34.2
2016-01-04T00:34:00Z,0000380,01000600,0000.52,0000.20,0000.02,0000.50,0000.32,-000.11,0000.10,0000.03,-000.02,25.2,00.0,0649.6,34.2
2016-01-04T00:35:00Z,0000380,01000600,0000.20,-000.15,-000.11,0000.31,0000.19,-000.18,-000.24,-000.20,-000.27,25.1,00.0,0649.6,34.2
2016-01-04T00:36:00Z,0000380,01000600,0000.19,-000.37,-000.13,0000.13,0000.02,-000.26,0000.21,0000.04,0000.27,25.1,00.0,0649.6,34.2
2016-01-04T00:37:00Z,0000380,01000600,0000.11,-000.11,-000.25,0000.21,0000.39,-000.21,-000.01,0000.19,0000.09,25.1,00.0,0649.6,34.2
2016-01-04T00:38:00Z,0000380,01000600,-000.80,-000.27,0000.00,-000.63,0000.05,0000.16,-000.09,-000.03,-000.10,25.1,00.0,0649.6,34.2
2016-01-04T00:39:00Z,0000380,01000600,0000.13,-000.04,0000.00,-000.13,0000.23,0000.02,-000.07,-000.13,-000.03,25.1,00.0,0649.6,34.2
2016-01-04T00:40:00Z,0000380,01000600,-000.06,0000.33,-000.41,-000.08,0000.06,-000.10,0000.02,0000.03,-000.18,25.1,00.0,0649.6,34.2
2016-01-04T00:41:00Z,0000380,01000600,-000.17,0000.40,0000.09,0000.16,0000.16,-000.06,0000.05,-000.05,-000.06,25.1,00.0,0649.6,34.2
2016-01-04T00:42:00Z,0000380,01000600,0000.04,-000.71,-000.32,-000.26,-000.08,0000.21,-000.09,0000.19,0000.16,25.1,00.0,0649.6,34.2
2016-01-04T00:43:00Z,0000380,01000600,0000.65,-000.27,-000.11,-000.45,0000.18,-000.32,-000.02,-000.13,0000.12,25.0,00.0,0649.6,34.2
2016-01-04T00:44:00Z,0000380,01000600,0000.56,0000.15,-000.07,-000.13,0000.34,-000.10,0000.02,-000.04,-000.13,25.0,00.0,0649.6,34.2
2016-01-04T00:45:00Z,0000380,01000600,0000.24,0000.09,0000.00,0000.62,-000.29,-000.23,0000.05,-000.14,-000.01,25.0,00.0,0649.6,34.2
2016-01-04T00:46:00Z,0000380,01000600,-000.30,0000.48,0000.15,0000.02,0000.00,0000.02,-000.11,0000.22,-000.06,25.0,00.0,0649.6,34.2
2016-01-04T00:47:00Z,0000380,01000600,0000.21,-000.17,0000.45,-000.18,0000.11,-000.10,0000.06,0000.05,0000.12,25.0,00.0,0649.6,34.2
2016-01-04T00:48:00Z,0000380,01000600,0000.20,0000.15,-000.30,-000.31,0000.39,-000.41,0000.05,0000.04,-000.10,25.0,00.0,0649.6,34.2
2016-01-04T00:49:00Z,0000380,01000600,0000.60,-000.46,-000.11,-000.37,-000.21,-000.23,0000.11,-000.22,0000.11,25.0,00.0,0649.6,34.2
2016-01-04T00:50:00Z,0000380,01000600,0000.26,-000.64,0000.09,-000.13,0000.21,0000.42,-000.24,0000.16,0000.23,25.1,00.0,0649.6,34.2
2016-01-04T00:51:00Z,0000380,01000600,0000.02,-000.44,-000.25,-000.83,0000.16,-000.08,0000.05,-000.02,-000.31,25.1,00.0,0649.6,34.2
2016-01-04T00:52:00Z,0000380,01000600,0000.40,0000.26,0000.45,-000.15,0000.39,0000.02,0000.05,0000.02,0000.23,25.1,00.0,0649.7,34.2
2016-01-04T00:53:00Z,0000380,01000600,-000.33,-000.25,0000.15,0000.13,-000.06,-000.21,0000.14,0000.00,-000.09,25.1,00.0,0649.7,34.2
2016-01-04T00:54:00Z,0000380,01000600,-001.23,-000.18,0000.21,-000.28,0000.26,-000.03,-000.19,-000.18,0000.12,25.1,00.0,0649.7,34.2
2016-01-04T00:55:00Z,0000380,01000600,0000.17,0000.40,-000.04,-000.39,-000.18,0000.21,-000.13,0000.14,-000.08,25.1,00.0,0649.7,34.2
2016-01-04T00:56:00Z,0000380,01000600,0000.66,-000.16,-000.09,0000.26,0000.35,-000.08,-000.09,-000.07,0000.22,25.1,00.0,0649.7,34.2
2016-01-04T00:57:00Z,0000380,41000600,,,,,,,,,,,,0649.8,34.2
2016-01-04T00:58:00Z,0000380,61000600,,,,,,,,,,25.0,00.0,0648.9,34.2
2016-01-04T00:59:00Z,0000380,21000600,,,,,,,,,,25.0,00.0,0648.9,34.2
2016-01-04T01:00:00Z,0000380,21000600,,,,,,,,,,25.0,00.0,0648.9,34.2
2016-01-04T01:01:00Z,0000380,21000600,,,,,,,,,,25.0,00.0,0648.9,34.2
2016-01-04T01:02:00Z,0000380,21000600,,,,,,,,,,25.0,00.0,0648.9,34.2
2016-01-04T01:03:00Z,0000380,61000600,,,,,,,,,,25.0,00.0,0648.9,34.2
2016-01-04T01:04:00Z,0000380,41000600,-000.88,-000.09,-000.18,0000.23,0000.16,0000.15,-000.15,0000.04,0000.06,25.0,00.0,0649.7,34.2
2016-01-04T01:05:00Z,0000380,01000600,-000.41,0000.24,0000.09,-000.29,0000.13,0000.00,0000.22,-000.08,-000.15,25.0,00.0,0649.7,34.2
2016-01-04T01:06:00Z,0000380,01000600,-000.58,-000.29,0000.36,0000.00,0000.56,0000.26,-000.20,-000.05,0000.18,25.0,00.0,0649.7,34.2
2016-01-04T01:07:00Z,0000380,01000600,-000.19,0000.04,-000.04,-000.21,-000.10,0000.31,-000.04,0000.03,-000.28,25.0,00.0,0649.7,34.2
2016-01-04T01:08:00Z,0000380,01000600,-000.06,-000.64,0000.23,-000.36,-000.11,0000.03,-000.04,-000.07,0000.46,25.0,00.0,0649.8,34.2
2016-01-04T01:09:00Z,0000380,01000600,0000.24,-000.04,-000.20,-000.52,-000.02,0000.31,-000.16,0000.20,-000.32,25.0,00.0,0649.8,34.2
2016-01-04T01:10:00Z,0000380,01000600,-000.60,-000.73,-000.12,-000.26,-000.02,0000.15,0000.24,-000.14,0000.06,25.0,00.0,0649.8,34.2
2016-01-04T01:11:00Z,0000380,01000600,-001.38,0000.58,0000.07,-000.24,0000.05,0000.08,-000.05,-000.12,-000.37,25.0,00.0,0649.8,34.2
2016-01-04T01:12:00Z,0000380,01000600,-001.12,-000.60,0000.09,-000.49,0000.02,0000.08,0000.23,0000.12,0000.55,25.0,00.0,0649.8,34.2
2016-01-04T01:13:00Z,0000380,01000600,-000.20,-000.18,-000.02,-000.21,-000.06,0000.19,-000.07,-000.02,-000.15,25.0,00.0,0649.8,34.2
2016-01-04T01:14:00Z,0000380,01000600,-000.48,-000.55,0000.02,-000.18,0000.32,0000.13,-000.05,0000.04,-000.04,25.0,00.0,0649.8,34.2
2016-01-04T01:15:00Z,0000380,01000600,0000.76,-000.11,0000.23,0000.11,-000.11,0000.10,0000.14,0000.08,0000.04,25.0,00.0,0649.8,34.3
2016-01-04T01:16:00Z,0000380,01000600,0000.28,-000.15,0000.11,-000.74,-000.13,-000.05,-000.16,-000.04,-000.28,25.0,00.0,0649.9,34.3
2016-01-04T01:17:00Z,0000380,01000600,-000.48,0000.27,0000.21,0000.23,0000.50,0000.24,0000.10,0000.07,0000.28,25.0,00.0,0649.9,34.3
2016-01-04T01:18:00Z,0000380,01000600,-000.09,-000.05,0000.41,-000.52,-000.15,-000.08,0000.02,-000.01,-000.07,25.0,00.0,0649.9,34.3
2016-01-04T01:19:00Z,0000380,01000600,-001.45,-000.27,0000.36,-000.08,0000.27,0000.08,0000.18,-000.04,-000.06,25.0,00.0,0649.9,34.3
2016-01-04T01:20:00Z,0000380,01000600,-000.50,-000.53,0000.11,0000.00,0000.50,0000.24,-000.17,-000.04,0000.25,25.0,00.0,0649.9,34.3
2016-01-04T01:21:00Z,0000380,01000600,0001.01,0000.18,0000.45,-000.55,0000.44,0000.16,-000.08,0000.10,0000.30,25.0,00.0,0649.9,34.3
2016-01-04T01:22:00Z,0000380,01000600,0000.42,-000.46,-000.46,-000.91,0000.39,0000.34,0000.19,-000.09,-000.43,25.0,00.0,0649.9,34.3
2016-01-04T01:23:00Z,0000380,01000600,-000.48,0000.29,0000.20,-000.37,-000.05,0000.23,-000.15,-000.04,-000.13,25.0,00.0,0649.9,34.3
2016-01-04T01:24:00Z,0000380,01000600,-001.95,-000.33,0000.16,-000.50,0000.00,0000.21,-000.09,0000.08,0000.04,25.0,00.0,0649.9,34.3
2016-01-04T01:25:00Z,0000380,01000600,-001.38,-000.18,-000.02,-000.40,0000.03,0000.06,0000.09,0000.14,0000.33,25.0,00.0,0649.9,34.3
2016-01-04T01:26:00Z,0000380,01000600,-000.24,0000.05,0000.05,-000.28,0000.00,-000.29,0000.01,-000.19,-000.32,25.0,00.0,0649.9,34.3
2016-01-04T01:27:00Z,0000380,01000600,-000.28,-000.44,-000.12,0000.02,0000.08,-000.03,0000.12,0000.11,0000.38,25.0,00.0,0649.9,34.3
2016-01-04T01:28:00Z,0000380,01000600,-000.39,-000.29,-000.14,-000.06,-000.52,-000.21,-000.16,-000.06,-000.42,25.0,00.0,0649.9,34.3
2016-01-04T01:29:00Z,0000380,01000600,-000.60,-000.77,0000.21,-000.26,0000.06,0000.10,0000.37,0000.25,0000.41,25.0,00.0,0649.9,34.3
2016-01-04T01:30:00Z,0000380,01000600,-000.80,-000.55,0000.36,0000.19,0000.55,0000.13,-000.11,-000.22,-000.22,24.9,00.0,0649.9,34.3
2016-01-04T01:31:00Z,0000380,01000600,0000.50,-000.64,0000.00,-000.47,0000.06,0000.39,-000.12,0000.04,-000.27,24.9,00.0,0649.9,34.3
2016-01-04T01:32:00Z,0000380,01000600,-001.08,-000.53,0000.16,-000.11,0000.13,0000.02,-000.04,-000.08,-000.13,24.9,00.0,0649.9,34.3
2016-01-04T01:33:00Z,0000380,01000600,0000.07,-000.60,0000.02,-000.65,0000.19,0000.24,0000.01,0000.17,0000.17,25.0,00.0,0649.9,34.3
2016-01-04T01:34:00Z,0000380,01000600,-000.88,0000.16,0000.07,-000.06,0000.16,0000.08,0000.25,0000.04,0000.06,25.0,00.0,0649.9,34.3
2016-01-04T01:35:00Z,0000380,01000600,-001.12,-000.46,0000.43,0001.15,0000.10,0000.18,-000.15,-000.22,-000.03,25.0,00.0,0650.0,34.3
2016-01-04T01:36:00Z,0000380,01000600,0000.41,-000.20,0000.16,-000.76,-000.19,-000.24,0000.17,0000.11,-000.17,25.0,00.0,0650.0,34.3
2016-01-04T01:37:00Z,0000380,01000600,-000.48,0000.11,0000.50,-000.36,-000.11,-000.16,-000.15,0000.14,0000.56,25.0,00.0,0650.0,34.3
2016-01-04T01:38:00Z,0000380,01000600,-000.41,-000.29,-000.25,0000.13,-000.16,-000.13,0000.13,-000.09,-000.35,25.0,00.0,0650.0,34.3
2016-01-04T01:39:00Z,0000380,01000600,-000.41,0000.31,0000.16,0000.03,0000.10,0000.26,0000.07,0000.10,0000.22,25.0,00.0,0650.0,34.3
2016-01-04T01:40:00Z,0000380,01000600,-000.61,-000.38,-000.27,-000.81,-000.13,0000.23,-000.20,-000.10,-000.04,25.0,00.0,0650.0,34.3
2016-01-04T01:41:00Z,0000380,01000600,-000.48,-000.15,0000.23,-000.16,0000.26,0000.15,-000.15,-000.21,-000.00,25.0,00.0,0650.1,34.3
2016-01-04T01:42:00Z,0000380,01000600,-001.27,-000.16,0000.14,-000.61,-000.08,0000.06,-000.21,0000.29,-000.06,25.0,00.0,0650.0,34.3
2016-01-04T01:43:00Z,0000380,01000600,-000.45,0000.11,0000.37,-000.39,0000.02,-000.06,0000.02,-000.08,0000.08,25.0,00.0,0650.0,34.3
2016-01-04T01:44:00Z,0000380,01000600,-000.54,-000.24,0000.18,-000.28,0000.16,-000.03,-000.02,-000.15,-000.35,25.0,00.0,0650.0,34.3
2016-01-04T01:45:00Z,0000380,01000600,-000.61,-000.29,0000.39,-000.71,-000.10,0000.50,-000.19,0000.10,0000.23,25.0,00.0,0650.0,34.3
2016-01-04T01:46:00Z,0000380,01000600,-000.74,0000.02,-000.11,0000.16,0000.53,0000.19,0000.10,-000.05,-000.07,25.0,00.0,0650.1,34.3
2016-01-04T01:47:00Z,0000380,01000600,-000.61,-000.09,0000.50,-000.37,0000.29,0000.34,-000.02,-000.04,-000.33,25.0,00.0,0650.1,34.3
2016-01-04T01:48:00Z,0000380,01000600,-000.09,-000.11,0000.59,-000.42,0000.35,0000.45,-000.15,0000.06,0000.28,25.0,00.0,0650.1,34.3
2016-01-04T01:49:00Z,0000380,01000600,0000.07,-000.31,0000.05,-000.65,-000.24,0000.34,0000.05,0000.07,0000.01,25.0,00.0,0650.1,34.3
2016-01-04T01:50:00Z,0000380,01000600,-000.50,0000.13,0000.14,-000.91,0000.39,0000.13,0000.04,-000.08,-000.17,25.0,00.0,0650.1,34.3
2016-01-04T01:51:00Z,0000380,01000600,-000.54,-000.33,0000.34,-000.11,-000.16,-000.03,0000.05,0000.03,0000.11,25.0,00.0,0650.1,34.3
2016-01-04T01:52:00Z,0000380,01000600,-000.82,-000.15,-000.11,-000.44,-000.06,0000.24,0000.02,-000.02,0000.21,25.0,00.0,0650.1,34.3
2016-01-04T01:53:00Z,0000380,01000600,-000.52,-000.15,0000.36,0000.15,0000.26,-000.29,0000.02,-000.20,-000.17,25.0,00.0,0650.1,34.3
2016-01-04T01:54:00Z,0000380,01000600,-001.47,-000.42,0000.05,0000.18,0000.32,0000.02,-000.33,0000.03,0000.02,25.0,00.0,0650.1,34.3
2016-01-04T01:55:00Z,0000380,01000600,-001.17,0000.18,0000.16,0000.24,-000.55,-000.02,-000.23,0000.02,-000.04,25.0,00.0,0650.1,34.3
2016-01-04T01:56:00Z,0000380,01000600,0000.47,-000.42,0000.29,0000.05,-000.08,0000.40,0000.14,-000.16,-000.11,24.9,00.0,0650.1,34.3
2016-01-04T01:57:00Z,0000380,41000600,,,,,,,,,,,,0650.1,34.3
2016-01-04T01:58:00Z,0000380,61000600,,,,,,,,,,24.8,00.0,0649.3,34.3
2016-01-04T01:59:00Z,0000380,21000600,,,,,,,,,,24.8,00.0,0649.3,34.3
2016-01-04T02:00:00Z,0000380,21000600,,,,,,,,,,24.8,00.0,0649.3,34.2
2016-01-04T02:01:00Z,0000380,21000600,,,,,,,,,,24.8,00.0,0649.3,34.2
2016-01-04T02:02:00Z,0000380,21000600,,,,,,,,,,24.8,00.0,0649.3,34.2
2016-01-04T02:03:00Z,0000380,61000600,,,,,,,,,,24.8,00.0,0649.3,34.2
2016-01-04T02:04:00Z,0000380,41000600,0000.35,0000.52,0000.55,0000.29,0000.19,0000.06,-000.13,0000.16,-000.10,24.8,00.0,0650.0,34.2
2016-01-04T02:05:00Z,0000380,01000600,0001.06,0000.25,-000.13,0000.10,0000.84,0000.23,0000.05,-000.11,-000.16,24.8,00.0,0650.1,34.2
2016-01-04T02:06:00Z,0000380,01000600,-001.10,0000.50,0000.47,0000.42,0000.23,0000.24,-000.08,0000.04,0000.33,24.8,00.0,0650.1,34.2
2016-01-04T02:07:00Z,0000380,01000600,0000.49,0000.25,-000.40,0000.47,0000.13,0000.02,0000.07,-000.05,-000.27,24.8,00.0,0650.1,34.2
2016-01-04T02:08:00Z,0000380,01000600,0000.76,0000.86,-000.40,0000.37,0000.34,0000.00,-000.05,-000.01,0000.07,24.8,00.0,0650.1,34.2
2016-01-04T02:09:00Z,0000380,01000600,0000.16,0000.02,-000.04,0000.13,0000.42,0000.19,-000.08,0000.13,0000.01,24.8,00.0,0650.1,34.2
2016-01-04T02:10:00Z,0000380,01000600,-000.21,0000.43,-000.32,0000.05,0000.45,-000.16,-000.01,-000.29,-000.31,24.7,00.0,0650.2,34.2
2016-01-04T02:11:00Z,0000380,01000600,0000.20,0000.24,0000.08,-000.03,0000.56,0000.11,-000.07,-000.16,0000.08,24.7,00.0,0650.1,34.2
2016-01-04T02:12:00Z,0000380,01000600,-000.05,0000.05,-000.11,0000.39,0000.32,0000.32,0000.01,0000.21,0000.12,24.7,00.0,0650.1,34.2
2016-01-04T02:13:00Z,0000380,01000600,-001.41,0000.77,0000.02,-000.13,0000.21,0000.03,0000.07,-000.05,-000.07,24.7,00.0,0650.1,34.2
2016-01-04T02:14:00Z,0000380,01000600,0000.32,0000.75,0000.02,-000.10,0000.56,0000.16,0000.04,-000.03,0000.13,24.7,00.0,0650.1,34.2
2016-01-04T02:15:00Z,0000380,01000600,0001.08,0000.86,-000.19,0000.05,0000.19,0000.18,-000.04,0000.20,-000.05,24.6,00.0,0650.1,34.1
2016-01-04T02:16:00Z,0000380,01000600,0001.65,0000.49,-000.30,0000.42,0000.23,-000.06,-000.08,-000.06,0000.06,24.6,00.0,0650.1,34.1
2016-01-04T02:17:00Z,0000380,01000600,0000.61,0000.30,-000.07,-000.10,0000.14,-000.15,0000.10,-000.07,-000.07,24.6,00.0,0650.1,34.1
2016-01-04T02:18:00Z,0000380,01000600,-000.14,-000.02,0000.14,-000.44,0000.42,0000.23,-000.06,-000.12,0000.01,24.6,00.0,0650.1,34.1
2016-01-04T02:19:00Z,0000380,01000600,0000.23,0000.72,-000.40,0000.40,0000.61,0000.08,-000.16,0000.07,-000.02,24.7,00.0,0650.1,34.1
2016-01-04T02:20:00Z,0000380,01000600,-000.26,0000.41,0000.27,0000.16,0000.63,0000.08,0000.14,-000.19,-000.32,24.7,00.0,0650.1,34.1
2016-01-04T02:21:00Z,0000380,01000600,0000.37,0000.22,0000.22,-000.13,0000.56,-000.08,-000.06,0000.23,0000.38,24.7,00.0,0650.1,34.1
2016-01-04T02:22:00Z,0000380,01000600,-000.56,0000.16,0000.05,-000.16,0000.35,0000.29,0000.11,-000.07,-000.19,24.7,00.0,0650.1,34.1
2016-01-04T02:23:00Z,0000380,01000600,0000.24,0002.13,-000.73,0000.03,0000.55,0000.10,-000.10,0000.04,0000.02,24.7,00.0,0650.2,34.1
2016-01-04T02:24:00Z,0000380,01000600,0001.08,0000.55,-000.06,-000.06,-000.26,0000.02,-000.23,-000.19,0000.19,24.7,00.0,0650.2,34.1
2016-01-04T02:25:00Z,0000380,01000600,0000.98,0000.63,-000.10,0000.27,0000.13,0000.29,0000.07,-000.02,-000.18,24.7,00.0,0650.2,34.1
2016-01-04T02:26:00Z,0000380,01000600,-000.54,0000.04,0000.10,-000.10,-000.18,0000.16,0000.02,0000.12,0000.13,24.6,00.0,0650.2,34.1
2016-01-04T02:27:00Z,0000380,01000600,-000.37,0000.29,-000.27,0000.06,0000.35,0000.18,-000.17,-000.16,-000.12,24.6,00.0,0650.2,34.1
2016-01-04T02:28:00Z,0000380,01000600,0001.26,0000.47,-000.61,-000.37,0000.10,-000.06,0000.13,-000.01,0000.19,24.6,00.0,0650.2,34.1
2016-01-04T02:29:00Z,0000380,01000600,0000.32,-000.27,-000.07,0000.27,0000.60,0000.32,-000.03,0000.04,-000.32,24.6,00.0,0650.2,34.1
2016-01-04T02:30:00Z,0000380,01000600,-000.23,0000.60,-000.20,0000.40,0000.72,0000.02,0000.00,-000.07,0000.25,24.5,00.0,0650.2,34.1
2016-01-04T02:31:00Z,0000380,01000600,-000.63,0000.89,-000.37,0000.31,0000.11,0000.39,-000.13,0000.03,-000.23,24.5,00.0,0650.2,34.1
2016-01-04T02:32:00Z,0000380,01000600,-000.33,0000.04,0000.05,0000.19,0000.42,-000.13,0000.12,0000.09,0000.02,24.5,00.0,0650.2,34.1
2016-01-04T02:33:00Z,0000380,01000600,-000.39,0000.49,0000.21,-000.05,0000.02,0000.26,-000.05,-000.03,0000.01,24.5,00.0,0650.2,34.1
2016-01-04T02:34:00Z,0000380,01000600,-001.26,0000.49,-000.04,-000.52,0000.29,0000.44,0000.17,0000.13,0000.28,24.5,00.0,0650.2,34.1
2016-01-04T02:35:00Z,0000380,01000600,-000.29,0000.18,0000.16,0000.42,0000.31,-000.02,-000.02,-000.15,-000.27,24.5,00.0,0650.2,34.1
2016-01-04T02:36:00Z,0000380,01000600,0002.23,0001.16,0000.26,-000.27,0000.42,0000.11,-000.27,-000.06,-000.04,24.5,00.0,0650.2,34.1
2016-01-04T02:37:00Z,0000380,01000600,-000.17,0000.20,-000.48,0000.44,0000.24,-000.10,0000.18,0000.15,-000.15,24.5,00.0,0650.2,34.1
2016-01-04T02:38:00Z,0000380,01000600,0001.17,0000.76,0000.18,-000.06,0000.24,0000.15,0000.07,-000.10,0000.31,24.5,00.0,0650.2,34.1
2016-01-04T02:39:00Z,0000380,01000600,-001.00,0000.06,-000.20,-000.48,0000.27,0000.13,-000.15,-000.09,0000.19,24.5,00.0,0650.2,34.1
2016-01-04T02:40:00Z,0000380,01000600,0000.22,0000.44,0000.04,-000.16,-000.03,0000.26,0000.04,0000.19,-000.36,24.5,00.0,0650.1,34.1
2016-01-04T02:41:00Z,0000380,01000600,0000.46,0001.41,-000.05,0000.58,0000.24,0000.26,0000.04,-000.14,0000.38,24.5,00.0,0650.1,34.1
2016-01-04T02:42:00Z,0000380,01000600,0000.08,0000.35,0000.07,-000.24,0000.85,0000.26,0000.00,-000.01,-000.04,24.5,00.0,0650.1,34.1
2016-01-04T02:43:00Z,0000380,01000600,-000.14,0000.18,0000.08,0000.79,0000.56,0000.31,0000.06,0000.21,-000.18,24.5,00.0,0650.1,34.1
2016-01-04T02:44:00Z,0000380,01000600,0000.63,-000.25,0000.10,-000.27,-000.06,0000.21,0000.09,0000.02,0000.19,24.5,00.0,0650.1,34.1
2016-01-04T02:45:00Z,0000380,01000600,0000.60,-000.02,0000.26,0000.26,-000.05,0000.37,0000.02,0000.12,-000.13,24.5,00.0,0650.1,34.2
2016-01-04T02:46:00Z,0000380,01000600,-001.67,0000.26,0000.00,0000.02,0000.19,0000.11,-000.02,-000.25,-000.21,24.5,00.0,0650.1,34.2
2016-01-04T02:47:00Z,0000380,01000600,0000.10,0000.37,0000.15,0000.50,0000.21,-000.16,-000.26,0000.03,-000.04,24.5,00.0,0650.2,34.2
2016-01-04T02:48:00Z,0000380,01000600,0000.12,0000.38,0000.21,-000.24,0000.02,0000.08,0000.22,0000.02,0000.12,24.5,00.0,0650.1,34.2
2016-01-04T02:49:00Z,0000380,01000600,-000.02,0000.21,-000.05,-000.03,0000.53,-000.21,0000.05,0000.03,0000.07,24.5,00.0,0650.1,34.2
2016-01-04T02:50:00Z,0000380,01000600,-000.20,0000.16,-000.30,-000.39,0000.24,0000.42,0000.07,-000.02,-000.12,24.5,00.0,0650.2,34.2
2016-01-04T02:51:00Z,0000380,01000600,-000.98,0000.11,-000.11,-000.02,0000.14,-000.24,-000.08,0000.02,-000.32,24.5,00.0,0650.2,34.2
2016-01-04T02:52:00Z,0000380,01000600,-000.35,0000.38,0000.04,-000.39,0000.35,0000.13,0000.08,-000.08,0000.31,24.5,00.0,0650.2,34.2
2016-01-04T02:53:00Z,0000380,01000600,0000.48,0000.77,-000.25,0000.18,-000.19,-000.15,-000.03,0000.18,-000.01,24.5,00.0,0650.2,34.2
2016-01-04T02:54:00Z,0000380,01000600,0000.28,0000.33,-000.09,0000.15,0000.26,-000.10,-000.09,-000.17,0000.18,24.5,00.0,0650.2,34.2
2016-01-04T02:55:00Z,0000380,01000600,-000.08,-000.16,0000.46,0000.21,0000.40,0000.11,0000.03,-000.02,-000.03,24.5,00.0,0650.2,34.2
2016-01-04T02:56:00Z,0000380,01000600,-000.26,0000.47,-000.32,0000.08,-000.10,0000.13,-000.17,0000.05,0000.02,24.5,00.0,0650.2,34.2
2016-01-04T02:57:00Z,0000380,41000600,,,,,,,,,,,,0650.1,34.2
2016-01-04T02:58:00Z,0000380,61000600,,,,,,,,,,24.3,00.0,0649.3,34.2
2016-01-04T02:59:00Z,0000380,21000600,,,,,,,,,,24.3,00.0,0649.3,34.2
2016-01-04T03:00:00Z,0000380,21000600,,,,,,,,,,24.3,00.0,0649.3,34.2
2016-01-04T03:01:00Z,0000380,21000600,,,,,,,,,,24.3,00.0,0649.3,34.2
2016-01-04T03:02:00Z,0000380,21000600,,,,,,,,,,24.3,00.0,0649.3,34.2
2016-01-04T03:03:00Z,0000380,61000600,,,,,,,,,,24.4,00.0,0649.3,34.2
2016-01-04T03:04:00Z,0000380,41000600,-000.11,0000.09,-000.16,-000.29,-000.21,-000.05,-000.30,0000.10,0000.10,24.5,00.0,0650.0,34.2
2016-01-04T03:05:00Z,0000380,01000600,0000.00,0000.05,0000.29,0000.37,-000.03,-000.10,0000.13,-000.11,-000.01,24.5,00.0,0650.0,34.2
2016-01-04T03:06:00Z,0000380,01000600,-000.07,0000.10,0000.14,-000.02,-000.32,-000.24,-000.01,-000.10,-000.12,24.5,00.0,0650.1,34.2
2016-01-04T03:07:00Z,0000380,01000600,-000.80,-000.16,-000.18,-000.24,-000.53,-000.26,0000.08,0000.21,0000.03,24.6,00.0,0650.1,34.2
2016-01-04T03:08:00Z,0000380,01000600,-000.28,0000.05,-000.04,-000.16,-000.18,0000.00,-000.01,-000.06,0000.18,24.6,00.0,0650.1,34.2
2016-01-04T03:09:00Z,0000380,01000600,-000.37,-000.27,0000.25,0000.31,-000.27,0000.11,-000.12,-000.05,-000.46,24.6,00.0,0650.1,34.2
2016-01-04T03:10:00Z,0000380,01000600,-000.71,0000.00,-000.14,0000.44,-000.37,0000.02,-000.11,0000.01,0000.14,24.6,00.0,0650.1,34.2
2016-01-04T03:11:00Z,0000380,01000600,0000.20,0000.05,0000.68,-000.37,-000.08,-000.05,0000.15,0000.01,0000.24,24.6,00.0,0650.1,34.2
2016-01-04T03:12:00Z,0000380,01000600,0000.06,-000.24,0000.53,0000.24,0000.02,0000.21,-000.11,-000.03,-000.00,24.6,00.0,0650.1,34.2